Showing default

JILIN-01 KUANFU 01C, 52443

Orbit data source: Space-Track

JILIN-01 KUANFU 01C, 52443 is a payload satellite owned by Changguang WJ (CN) in SSO that was launched on Thu, 05 May 2022 UTC via a CHANG ZHENG 2D launch vehicle from the Taiyaun Space Center, China (TSC). Payload-class satellites include a variety of spacecraft equipped with specific instruments for various scientific and technological missions. These include communications satellites like Starlink; space stations such as the ISS; scientific satellites like the Hubble; Earth observation satellites from companies like Planet Labs, Umbra, and HawkEye 360; GPS; miniature CubeSats for education and research; and military/defense satellites.

Loading next visibility...
Identifier
52443, 2022-048A
Orbit
SSO
Country
Flag of CNCN / PRC
Related business
Manufacturer
HARB/CGSTL
Mission
Operational Commercial Imaging
Bus & Motor
JL-1, Unknown motor
Mass
1,250 kg wet, 1,250 kg dry
Launch date (UTC)
2022-05-05 (4 years ago)
Launch vehicle
CHANG ZHENG 2D
Launch site
Taiyaun Space Center, China (TSC)
Object type
Payload
Rocket body
Debris
Shape & HBR
Box + 2 Pan, 0.8 m
Radar Cross Section
2.000 m², Large (>1 m²)

Expand to show TLE details & history
Last TLE update: 9 hours ago

TLE from 9 hours ago
0 JILIN-01 KUANFU 01C
1 52443U 22048A   25346.99694484  .00005526  00000-0  33866-3 0  9994
2 52443  97.5452  62.3437 0014035 251.2942 108.6765 15.10492173199101
Epoch: 2025-12-12T23:55Z
TLE epoch observation values (Epoch: 2025-12-12T23:55:36.034Z)
Latitude
0.00004°
Longitude
-18.48699°
Altitude
540.891 km
Speed
7.59 km/s
True Right ascension
04h 09m 22s
True Declination
0° 00' 00"
Sunlit
Object was in full shadow at epoch
Visualization orbit readout
Latitude
Unknown
Longitude
Unknown
Altitude
Unknown
Speed
Unknown
Apparent Right ascension
Unknown
Apparent Declination
Unknown
Sunlit
N/A
Visualization observer readout
Local Sidereal Time
07:34:23
Azimuth
Unknown
Elevation
Unknown
Doppler factor
Unknown
Orbital elements
Apogee altitude
541.38 km
Perigee altitude
521.985 km
Semi-major axis
6,909.819 km
Eccentricity
0.0014
Inclination
97.5452°
RAAN
62.3437°
Arg. of periapsis
251.2942°
True anomaly
108.82877°
Mean anomaly
108.6765°
Eccentric anomaly
108.75265°
Mean motion
3.77871 °/min
Orbital period
95.27 mins
BSTAR
0.00033866
Loading maneuver chart data...
Computing Atmospheric mass density...
Loading historical data...
Loading historical data...
Loading historical data...
Loading historical data...
Loading historical data...
Loading historical data...
Loading historical data...

Documentation

Showing up to 5 results
|